This demonstration page uses our WeatherBlox Daily Observations layout. Learn more.

Left ArrowRight Arrow

Hourly Observations for July 5, 2021

Temp ( °F °C ) Dew Point ( °F °C ) Humidity (%) Winds ( mph kmh ) Pressure ( in mb ) Visibility ( mi km ) Precip ( " mm )
12:15 am 00:15 Clear 75 23.9 68 20.1 79 79 SSE 7 11 29.87 1011 10 16 N/A
12:35 am 00:35 Clear 73 23 68 20 83 83 SSE 5 7 29.89 1012 10 16 N/A
12:55 am 00:55 Clear 73 23 68 20 83 83 S 6 9 29.89 1012 10 16 N/A
1:15 am 01:15 Clear 73 22.8 68 20 84 84 S 6 9 29.89 1012 10 16 N/A
1:35 am 01:35 Clear 73 23 68 20 83 83 S 6 9 29.89 1012 10 16 N/A
1:55 am 01:55 Clear 73 22.7 67 19.7 83 83 S 7 11 29.88 1012 10 16 N/A
2:15 am 02:15 Clear 73 22.6 67 19.7 84 84 S 5 7 29.88 1012 10 16 N/A
2:35 am 02:35 Clear 73 22.5 67 19.6 84 84 S 3 6 29.88 1012 10 16 N/A
2:55 am 02:55 Clear 72 22 67 19.6 86 86 S 3 6 29.88 1012 10 16 N/A
3:15 am 03:15 Clear 71 21.7 67 19.5 87 87 N N/A 29.88 1012 10 16 N/A
3:35 am 03:35 Clear 71 21.6 67 19.4 87 87 N N/A 29.87 1011 10 16 N/A
3:55 am 03:55 Clear 68 19.8 65 18.4 92 92 N N/A 29.88 1012 10 16 N/A
4:15 am 04:15 Clear 67 19.7 65 18.6 93 93 N N/A 29.88 1012 10 16 N/A
4:35 am 04:35 Clear 67 19.3 65 18.5 95 95 N N/A 29.90 1012 7 11 N/A
4:55 am 04:55 Clear 67 19.5 65 18.5 94 94 E 3 6 29.90 1012 7 11 N/A
5:15 am 05:15 Clear 66 19 65 18.1 95 95 N N/A 29.90 1013 7 11 N/A
5:35 am 05:35 Clear 67 19.6 65 18.5 93 93 SSE 5 7 29.90 1012 10 16 N/A
5:55 am 05:55 Clear 68 19.8 66 19 95 95 SSE 6 9 29.90 1013 10 16 N/A
6:15 am 06:15 Sunny 67 19.7 66 18.8 95 95 SE 5 7 29.90 1013 7 11 N/A
6:35 am 06:35 Sunny 68 20.2 67 19.3 95 95 SE 6 9 29.90 1013 7 11 N/A
6:55 am 06:55 Sunny 69 20.5 67 19.3 93 93 SSE 6 9 29.91 1013 7 11 N/A
7:15 am 07:15 Sunny 69 20.5 67 19.5 94 94 SSE 5 7 29.91 1013 7 11 N/A
7:35 am 07:35 Sunny 70 21.1 67 19.6 91 91 SSE 3 6 29.91 1013 7 11 N/A
7:55 am 07:55 Sunny 71 21.6 67 19.7 89 89 SSE 3 6 29.93 1013 7 11 N/A
8:15 am 08:15 Sunny 72 22.3 68 20 87 87 SE 3 6 29.92 1013 7 11 N/A
8:35 am 08:35 Sunny 74 23.2 69 20.4 84 84 S 5 7 29.92 1013 10 16 N/A
8:55 am 08:55 Sunny 76 24.3 69 20.8 81 81 S 5 7 29.92 1013 10 16 N/A
9:15 am 09:15 Sunny 76 24.7 70 21.1 80 80 S 5 7 29.91 1013 10 16 N/A
9:35 am 09:35 Sunny 78 25.5 71 21.4 78 78 SSW 3 6 29.91 1013 10 16 N/A
9:55 am 09:55 Sunny 79 26.2 71 21.7 76 76 SSE 5 7 29.90 1013 10 16 N/A
10:15 am 10:15 Sunny 80 26.7 71 21.6 74 74 S 5 7 29.90 1012 10 16 N/A
10:35 am 10:35 Sunny 82 27.8 71 21.6 69 69 SSE 6 9 29.89 1012 10 16 N/A
10:55 am 10:55 Sunny 84 28.7 70 20.9 63 63 S 9 15 29.88 1012 10 16 N/A
11:15 am 11:15 Sunny 84 28.9 69 20.3 60 60 SSE 12 19 29.88 1012 10 16 N/A
11:35 am 11:35 Sunny 85 29.4 66 18.7 53 53 SSE 9 15 29.87 1012 10 16 N/A
11:55 am 11:55 Sunny 86 29.8 63 17.4 47 47 SSE 8 13 29.87 1012 10 16 N/A
12:15 pm 12:15 Sunny 86 29.9 66 19.1 52 52 SE 8 13 29.88 1012 10 16 N/A
12:35 pm 12:35 Partly Cloudy 86 30.1 68 20 55 55 SSE 10 17 29.88 1012 10 16 N/A
12:55 pm 12:55 Partly Cloudy 88 30.9 68 19.9 52 52 SE 8 13 29.86 1011 10 16 N/A
1:15 pm 13:15 Partly Cloudy 86 30.2 67 19.5 53 53 S 12 19 29.87 1011 10 16 N/A
1:35 pm 13:35 Mostly Cloudy 88 31.1 67 19.7 51 51 S 10 17 29.86 1011 10 16 N/A
1:55 pm 13:55 Partly Cloudy 87 30.8 67 19.5 51 51 SE 12 19 29.85 1011 10 16 N/A
2:15 pm 14:15 Partly Cloudy 89 31.5 67 19.3 48 48 SSE 9 15 29.85 1011 10 16 N/A
2:35 pm 14:35 Partly Cloudy 89 31.6 67 19.3 48 48 SSE 10 17 29.84 1010 10 16 N/A
2:55 pm 14:55 Partly Cloudy 90 32.3 66 18.9 45 45 SSW 14 22 29.82 1010 10 16 N/A
3:15 pm 15:15 Partly Cloudy 90 32.2 67 19.5 47 47 SSE 12 19 29.81 1010 10 16 N/A
3:35 pm 15:35 Partly Cloudy 91 32.5 67 19.2 45 45 SE 12 19 29.81 1009 10 16 N/A
3:55 pm 15:55 Sunny 91 32.5 65 18.3 43 43 SSE 13 20 29.80 1009 10 16 N/A
4:15 pm 16:15 Sunny 90 32.4 66 18.9 45 45 S 13 20 29.80 1009 10 16 N/A
4:35 pm 16:35 Sunny 90 32.4 65 18.4 43 43 S 10 17 29.80 1009 10 16 N/A
4:55 pm 16:55 Sunny 91 32.9 66 18.7 43 43 SSE 10 17 29.79 1009 10 16 N/A
5:15 pm 17:15 Sunny 91 32.8 67 19.6 46 46 SSE 10 17 29.79 1009 10 16 N/A
5:35 pm 17:35 Sunny 91 32.5 66 19.1 45 45 SSE 9 15 29.79 1009 10 16 N/A
5:55 pm 17:55 Partly Cloudy 90 32.4 67 19.3 46 46 S 12 19 29.79 1009 10 16 N/A
6:15 pm 18:15 Sunny 90 32.3 67 19.2 46 46 SSE 12 19 29.78 1008 10 16 N/A
6:35 pm 18:35 Sunny 90 32.1 67 19.6 48 48 SSE 12 19 29.78 1009 10 16 N/A
6:55 pm 18:55 Sunny 89 31.7 67 19.4 48 48 SE 12 19 29.79 1009 10 16 N/A
7:15 pm 19:15 Sunny 89 31.5 66 19 47 47 SSE 12 19 29.80 1009 10 16 N/A
7:35 pm 19:35 Sunny 88 31 66 19.1 49 49 SE 10 17 29.80 1009 10 16 N/A
7:55 pm 19:55 Sunny 88 31 66 18.7 48 48 SE 9 15 29.81 1010 10 16 N/A
8:15 pm 20:15 Sunny 87 30.5 66 18.7 49 49 SSE 10 17 29.82 1010 10 16 N/A
8:35 pm 20:35 Sunny 86 30 67 19.3 53 53 ESE 8 13 29.83 1010 10 16 N/A
8:55 pm 20:55 Sunny 84 29 67 19.6 57 57 SE 7 11 29.85 1011 10 16 N/A
9:15 pm 21:15 Clear 83 28.5 67 19.6 59 59 SE 7 11 29.85 1011 10 16 N/A
9:35 pm 21:35 Clear 82 28 68 20 62 62 SE 8 13 29.86 1011 10 16 N/A
9:55 pm 21:55 Clear 81 27.1 68 20.2 66 66 SE 8 13 29.87 1012 10 16 N/A
10:15 pm 22:15 Clear 80 26.7 69 20.3 68 68 SE 7 11 29.88 1012 10 16 N/A
10:35 pm 22:35 Clear 79 26.2 68 20.1 69 69 SE 7 11 29.89 1012 10 16 N/A
10:55 pm 22:55 Clear 79 26 67 19.5 67 67 SSE 8 13 29.89 1012 10 16 N/A
11:15 pm 23:15 Clear 77 25.2 67 19.2 69 69 SE 8 13 29.90 1012 10 16 N/A
11:35 pm 23:35 Clear 76 24.5 66 19 72 72 SSE 7 11 29.90 1013 10 16 N/A
11:55 pm 23:55 Clear 75 24.1 66 18.7 72 72 SE 8 13 29.91 1013 10 16 N/A

Powered by AerisWeather